Location: Wakeley
(44.8280°N, 106.8906°W)
Time: 03:53:18
(UTC+00:00)

ISS - Visible Passes

Search period start: 27 January 2022 00:00
Search period end: 06 February 2022 00:00
Orbit: 413 x 422 km, 51.6° (Epoch: 26 January)

Date Brightness Start Highest point End Pass type
(mag) Time Alt. Az. Time Alt. Az. Time Alt. Az.
27 Jan -2.3 01:01:05 10° WNW 01:03:57 26° N 01:06:18 13° NE visible
27 Jan -1.0 02:38:25 10° NW 02:39:14 15° NW 02:39:14 15° NW visible
28 Jan -2.3 01:50:18 10° NW 01:53:09 25° N 01:53:09 25° N visible
29 Jan -2.2 01:02:06 10° NW 01:04:54 24° N 01:07:05 14° NE visible
29 Jan -1.2 02:39:00 10° NW 02:40:01 18° NW 02:40:01 18° NW visible
30 Jan -2.8 01:50:56 10° NW 01:53:59 34° NNE 01:53:59 34° NNE visible
31 Jan -2.6 01:02:50 10° NW 01:05:47 28° NNE 01:08:00 15° ENE visible
31 Jan -1.5 02:39:31 10° WNW 02:40:56 23° WNW 02:40:56 23° WNW visible
01 Feb -3.8 01:51:25 10° NW 01:54:43 61° NNE 01:55:02 57° ENE visible
02 Feb -3.3 01:03:19 10° NW 01:06:31 43° NNE 01:09:14 13° E visible
02 Feb -1.7 02:40:10 10° WNW 02:42:11 27° W 02:42:11 27° W visible
03 Feb -3.3 01:51:54 10° WNW 01:55:11 58° SW 01:56:31 31° SSE visible
04 Feb -3.8 01:03:43 10° WNW 01:07:03 88° NNE 01:10:23 10° ESE visible
04 Feb -1.0 02:41:33 10° W 02:43:23 14° SW 02:44:00 14° SW visible
05 Feb -1.4 01:52:43 10° W 01:55:24 23° SW 01:58:05 10° S visible
